STARLINK-36844, 68117

Orbit data source: Space-Track

STARLINK-36844, 68117 is a payload satellite owned by SpaceX/Seattle (US) in SSO that was launched on Sun, 08 Mar 2026 UTC via an FALCON 9 launch vehicle from the Air Force Western Test Range (AFWTR). Payload-class satellites include a variety of spacecraft equipped with specific instruments for various scientific and technological missions. These include communications satellites like Starlink; space stations such as the ISS; scientific satellites like the Hubble; Earth observation satellites from companies like Planet Labs, Umbra, and HawkEye 360; GPS; miniature CubeSats for education and research; and military/defense satellites.

Loading next visibility...
Identifier
68117, 2026-044S
Orbit
SSO
Country
Flag of USUS
Related business
Manufacturer
SpaceX/Seattle
Mission
Operational spacecraft
Bus & Motor
STARLINK V2MO, Unknown motor
Mass
575 kg wet, ~530 kg dry
Launch date (UTC)
2026-03-08 (3 months ago)
Launch vehicle
FALCON 9
Launch site
Air Force Western Test Range (AFWTR)
Object type
Payload
Rocket body
Debris
Shape & HBR
Unknown shape, 17.7 m
Radar Cross Section
Large (>1 m²)

Expand to show TLE details & history
Last TLE update: 1 week ago

TLE from 1 week ago
0 STARLINK-36844
1 68117U 26044S   26153.83473123  .00032489  00000-0  10043-2 0  9993
2 68117  97.2856 114.3731 0002391 357.6136   2.5095 15.33443731 14637
Epoch: 2026-06-02T20:02Z
TLE epoch observation values (Epoch: 2026-06-02T20:02:00.778Z)
Latitude
-0°
Longitude
-77.43215°
Altitude
467.024 km
Speed
7.634 km/s
True Right ascension
07h 37m 29s
True Declination
0° 00' 00"
Sunlit
Object was in daylight at epoch
Visualization orbit readout
Latitude
Unknown
Longitude
Unknown
Altitude
Unknown
Speed
Unknown
Apparent Right ascension
Unknown
Apparent Declination
Unknown
Sunlit
N/A
Visualization observer readout
Local Sidereal Time
18:48:46
Azimuth
Unknown
Elevation
Unknown
Doppler factor
Unknown
Orbital elements
Apogee altitude
464.125 km
Perigee altitude
460.854 km
Semi-major axis
6,840.627 km
Eccentricity
0.00024
Inclination
97.2856°
RAAN
114.3731°
Arg. of periapsis
357.6136°
True anomaly
2.5107°
Mean anomaly
2.5095°
Eccentric anomaly
2.5101°
Mean motion
3.83618 °/min
Orbital period
93.84 mins
BSTAR
0.0010043
Loading maneuver chart data...
Computing Atmospheric mass density...
Loading historical data...
Loading historical data...
Loading historical data...
Loading historical data...
Loading historical data...
Loading historical data...
Loading historical data...

Documentation

Showing up to 5 results
|